Location: Observatorio del Centro Ecologico de Sonora
(29.0667°N, 110.9333°W)
Time: 03:12:23
(UTC-07:00)

ISS - Visible Passes

Search period start: 25 October 2014 00:00
Search period end: 04 November 2014 00:00
Orbit: 412 x 416 km, 51.6° (Epoch: 25 October)

Date Brightness Start Highest point End Pass type
(mag) Time Alt. Az. Time Alt. Az. Time Alt. Az.
25 Oct -1.8 19:01:02 10° NNW 19:03:08 25° NNE 19:03:08 25° NNE visible
26 Oct -1.4 18:12:28 10° N 18:14:37 16° NE 18:16:35 11° ENE visible
26 Oct -0.5 19:48:18 10° WNW 19:49:30 19° WNW 19:49:30 19° WNW visible
27 Oct -3.3 18:58:50 10° NW 19:02:10 79° SW 19:03:12 41° SSE visible
28 Oct -3.0 18:09:39 10° NNW 18:12:52 46° NE 18:16:04 10° ESE visible
29 Oct -0.6 18:57:29 10° WNW 19:00:00 20° SW 19:02:30 10° S visible
30 Oct -1.9 18:07:34 10° WNW 18:10:44 42° SW 18:13:53 10° SSE visible
01 Nov 0.2 18:06:53 10° W 18:08:14 12° SW 18:09:35 10° SSW visible
